Weather History for KBCE - March, 2014

Change the Weather History Date:

Saturday, March 15, 2014

  Actual Average Record
Temperature  
Mean Temperature 36 °F -  
Max Temperature 48 °F 43 °F 64 °F (2013)
Min Temperature 26 °F 17 °F -4 °F (1962)
Degree Days  
Heating Degree Days 29    
Moisture  
Dew Point 12 °F    
Average Humidity 39    
Maximum Humidity 85    
Minimum Humidity 16    
Precipitation  
Precipitation 0.00 in - - ()
Sea Level Pressure  
Sea Level Pressure 30.17 in    
Wind  
Wind Speed 14 mph (NNW)    
Max Wind Speed 31 mph    
Max Gust Speed 37 mph    
Visibility 10 miles    
Events      
Averages and records for this station are not official NWS values.
T = Trace of Precipitation, MM = Missing Value Source: NWS Daily Summary

Daily Weather History Graph

Daily Weather History Graph

Search for Another Location

Airport or City:

Trip Planner

Search our weather history database for the weather conditions in past years. The results will help you decide how hot, cold, wet, or windy it might be!

Date:

Astronomy

Mar. 15, 2014 Rise Set
Actual Time 7:39 AM MDT 7:35 PM MDT
Civil Twilight 7:13 AM MDT 8:02 PM MDT
Nautical Twilight 6:43 AM MDT 8:32 PM MDT
Astronomical Twilight 6:12 AM MDT 9:03 PM MDT
Moon 6:58 PM MDT (3/15) 6:52 AM MDT (3/15)
Length of Visible Light 12h 48m
Length of Day
11h 56m
Waxing Gibbous, 99% of the Moon is Illuminated
Mar 15
Waxing Gibbous
Mar 16
Full
Mar 23
Last Quarter
Mar 30
New
Apr 7
First Quarter

Hourly Weather History & Observations

Time (MDT) Temp. Windchill Dew Point Humidity Pressure Visibility Wind Dir Wind Speed Gust Speed Precip Events Conditions
12:53 AM 35.1 °F 26.4 °F 9.0 °F 34% 30.00 in 10.0 mi WNW 12.7 mph - N/A   Clear
1:53 AM 34.0 °F 25.0 °F 19.0 °F 54% 30.00 in 10.0 mi WNW 12.7 mph - N/A   Mostly Cloudy
2:53 AM 33.1 °F 26.1 °F 24.1 °F 70% 30.02 in 10.0 mi NNW 8.1 mph - N/A   Mostly Cloudy
3:53 AM 28.9 °F 25.2 °F 25.0 °F 85% 30.04 in 10.0 mi North 3.5 mph - N/A   Clear
4:53 AM 30.0 °F 21.1 °F 16.0 °F 56% 30.04 in 10.0 mi NNW 10.4 mph - N/A   Clear
5:53 AM 32.0 °F 20.5 °F 16.0 °F 52% 30.06 in 10.0 mi North 18.4 mph 33.4 mph N/A   Clear
6:53 AM 28.9 °F 21.1 °F 17.1 °F 61% 30.10 in 10.0 mi North 8.1 mph - N/A   Clear
7:53 AM 26.1 °F 16.8 °F 15.1 °F 63% 30.16 in 10.0 mi NW 9.2 mph - N/A   Clear
8:53 AM 33.1 °F 22.2 °F 19.0 °F 56% 30.15 in 10.0 mi NW 17.3 mph 24.2 mph N/A   Clear
9:53 AM 36.0 °F 24.4 °F 19.9 °F 52% 30.19 in 10.0 mi NW 23.0 mph 28.8 mph N/A   Clear
10:53 AM 39.0 °F 29.0 °F 15.1 °F 38% 30.20 in 10.0 mi NW 20.7 mph 32.2 mph N/A   Partly Cloudy
11:53 AM 43.0 °F 36.0 °F 10.9 °F 27% 30.16 in 10.0 mi North 13.8 mph 21.9 mph N/A   Clear
12:53 PM 44.1 °F 35.7 °F 9.0 °F 24% 30.16 in 10.0 mi NW 20.7 mph 34.5 mph N/A   Clear
1:53 PM 45.0 °F 36.6 °F 9.0 °F 23% 30.16 in 10.0 mi NW 21.9 mph 36.8 mph N/A   Clear
2:53 PM 46.9 °F - 10.0 °F 22% 30.18 in 10.0 mi North 16.1 mph 27.6 mph N/A   Clear
3:53 PM 46.0 °F 36.5 °F 10.0 °F 23% 30.20 in 10.0 mi NNE 31.1 mph 35.7 mph N/A   Clear
4:53 PM 46.0 °F 37.0 °F 6.1 °F 20% 30.22 in 10.0 mi North 27.6 mph 34.5 mph N/A   Clear
5:53 PM 45.0 °F 35.8 °F 1.0 °F 16% 30.21 in 10.0 mi NW 26.5 mph 35.7 mph N/A   Clear
6:53 PM 42.1 °F 33.3 °F 3.0 °F 20% 30.26 in 10.0 mi NNW 19.6 mph 29.9 mph N/A   Clear
7:53 PM 37.9 °F 26.8 °F 3.0 °F 23% 30.30 in 10.0 mi NW 24.2 mph 32.2 mph N/A   Clear
8:53 PM 35.1 °F 26.9 °F 3.9 °F 27% 30.31 in 10.0 mi North 11.5 mph - N/A   Clear
9:53 PM 32.0 °F 26.4 °F 7.0 °F 35% 30.33 in 10.0 mi Variable 5.8 mph - N/A   Clear
10:53 PM 33.1 °F 23.9 °F 7.0 °F 34% 30.33 in 10.0 mi NW 12.7 mph - N/A   Clear
11:53 PM 33.1 °F 25.5 °F 1.9 °F 27% 30.32 in 10.0 mi NW 9.2 mph - N/A   Clear